Time,TemperatureF,DewpointF,PressureIn,WindDirection,WindDirectionDegrees,WindSpeedMPH,WindSpeedGustMPH,Humidity,HourlyPrecipIn,Conditions,Clouds,dailyrainin,SoftwareType,DateUTC
2013-03-25 00:00:00,34.1,32.8,29.56,NNW,334,1.0,3.0,95,0.00,,---,0.63,VWS V14.01,2013-03-25 04:00:00,
2013-03-25 00:05:00,34.0,32.7,29.56,NNW,334,0.0,2.0,95,0.00,,---,0.00,VWS V14.01,2013-03-25 04:05:00,
2013-03-25 00:10:00,33.9,32.6,29.56,NNW,334,1.0,2.0,95,0.01,,---,0.01,VWS V14.01,2013-03-25 04:10:00,
2013-03-25 00:15:00,33.9,32.6,29.56,NNW,333,0.0,2.0,95,0.01,,---,0.01,VWS V14.01,2013-03-25 04:15:00,
2013-03-25 00:21:00,33.8,32.8,29.56,NNW,333,0.0,0.0,96,0.01,,---,0.01,VWS V14.01,2013-03-25 04:21:00,
2013-03-25 00:26:00,33.8,32.8,29.56,NNW,333,1.0,2.0,96,0.01,,---,0.01,VWS V14.01,2013-03-25 04:26:00,
2013-03-25 00:31:00,33.9,32.9,29.55,NNW,333,0.0,2.0,96,0.02,,---,0.02,VWS V14.01,2013-03-25 04:31:00,
2013-03-25 00:36:00,33.8,32.8,29.55,NNE,22,0.0,4.0,96,0.02,,---,0.02,VWS V14.01,2013-03-25 04:36:00,
2013-03-25 00:41:00,33.8,32.8,29.55,NNE,22,1.0,2.0,96,0.02,,---,0.02,VWS V14.01,2013-03-25 04:41:00,
2013-03-25 00:46:00,33.8,32.8,29.55,NNE,22,0.0,2.0,96,0.02,,---,0.02,VWS V14.01,2013-03-25 04:46:00,
2013-03-25 00:51:00,33.6,32.6,29.55,NNE,22,0.0,1.0,96,0.02,,---,0.02,VWS V14.01,2013-03-25 04:51:00,
2013-03-25 00:56:00,33.5,32.5,29.55,NNE,22,0.0,2.0,96,0.02,,---,0.02,VWS V14.01,2013-03-25 04:56:00,
2013-03-25 01:02:00,33.4,32.4,29.54,NNE,22,0.0,0.0,96,0.02,,---,0.02,VWS V14.01,2013-03-25 05:02:00,
2013-03-25 01:07:00,33.3,32.3,29.54,NNE,22,0.0,0.0,96,0.02,,---,0.02,VWS V14.01,2013-03-25 05:07:00,
2013-03-25 01:12:00,33.2,32.2,29.54,NNE,22,0.0,0.0,96,0.02,,---,0.02,VWS V14.01,2013-03-25 05:12:00,
2013-03-25 01:17:00,33.1,32.1,29.54,NNE,22,0.0,0.0,96,0.02,,---,0.02,VWS V14.01,2013-03-25 05:17:00,
2013-03-25 01:22:00,33.2,32.2,29.54,NNE,22,0.0,0.0,96,0.01,,---,0.02,VWS V14.01,2013-03-25 05:22:00,
2013-03-25 01:27:00,33.2,32.2,29.54,NNE,22,0.0,1.0,96,0.01,,---,0.02,VWS V14.01,2013-03-25 05:27:00,
2013-03-25 01:32:00,33.2,32.2,29.53,NNE,22,0.0,1.0,96,0.00,,---,0.02,VWS V14.01,2013-03-25 05:32:00,
2013-03-25 01:37:00,33.2,32.2,29.53,NNE,22,0.0,2.0,96,0.00,,---,0.02,VWS V14.01,2013-03-25 05:37:00,
2013-03-25 01:42:00,33.2,32.2,29.53,NNE,22,0.0,2.0,96,0.00,,---,0.02,VWS V14.01,2013-03-25 05:42:00,
2013-03-25 01:47:00,33.2,32.2,29.53,NNE,22,0.0,2.0,96,0.00,,---,0.02,VWS V14.01,2013-03-25 05:47:00,
2013-03-25 01:52:00,33.2,32.2,29.53,NNE,22,0.0,3.0,96,0.00,,---,0.02,VWS V14.01,2013-03-25 05:52:00,
2013-03-25 01:58:00,33.3,32.3,29.53,NNE,22,0.0,3.0,96,0.00,,---,0.02,VWS V14.01,2013-03-25 05:58:00,
2013-03-25 02:03:00,33.2,32.2,29.53,NNE,22,1.0,1.0,96,0.00,,---,0.02,VWS V14.01,2013-03-25 06:03:00,
2013-03-25 02:08:00,33.2,32.2,29.53,NNE,22,1.0,2.0,96,0.00,,---,0.02,VWS V14.01,2013-03-25 06:08:00,
2013-03-25 02:13:00,33.3,32.3,29.53,NNE,22,2.0,2.0,96,0.00,,---,0.02,VWS V14.01,2013-03-25 06:13:00,
2013-03-25 02:18:00,33.2,32.2,29.53,NNE,22,0.0,2.0,96,0.00,,---,0.02,VWS V14.01,2013-03-25 06:18:00,
2013-03-25 02:23:00,33.3,32.3,29.53,NNE,22,0.0,0.0,96,0.00,,---,0.02,VWS V14.01,2013-03-25 06:23:00,
2013-03-25 02:28:00,33.3,32.3,29.53,NNE,22,0.0,1.0,96,0.00,,---,0.02,VWS V14.01,2013-03-25 06:28:00,
2013-03-25 02:33:00,33.3,32.3,29.53,NNE,22,0.0,0.0,96,0.00,,---,0.02,VWS V14.01,2013-03-25 06:33:00,
2013-03-25 02:38:00,33.3,32.3,29.53,NNE,22,1.0,2.0,96,0.00,,---,0.02,VWS V14.01,2013-03-25 06:38:00,
2013-03-25 02:43:00,33.4,32.4,29.53,NNE,22,0.0,1.0,96,0.00,,---,0.02,VWS V14.01,2013-03-25 06:43:00,
2013-03-25 02:48:00,33.3,32.3,29.53,NNE,22,0.0,1.0,96,0.00,,---,0.02,VWS V14.01,2013-03-25 06:48:00,
2013-03-25 02:53:00,33.3,32.3,29.53,NNE,22,0.0,1.0,96,0.00,,---,0.02,VWS V14.01,2013-03-25 06:53:00,
2013-03-25 02:59:00,33.3,32.3,29.53,NNE,22,0.0,1.0,96,0.00,,---,0.02,VWS V14.01,2013-03-25 06:59:00,
2013-03-25 03:04:00,33.3,32.3,29.53,NNE,22,0.0,2.0,96,0.00,,---,0.02,VWS V14.01,2013-03-25 07:04:00,
2013-03-25 03:09:00,33.4,32.4,29.53,NNE,22,0.0,2.0,96,0.00,,---,0.02,VWS V14.01,2013-03-25 07:09:00,
2013-03-25 03:14:00,33.5,32.5,29.53,NNE,22,0.0,0.0,96,0.00,,---,0.02,VWS V14.01,2013-03-25 07:14:00,
2013-03-25 03:19:00,33.5,32.5,29.53,NNE,22,0.0,0.0,96,0.00,,---,0.02,VWS V14.01,2013-03-25 07:19:00,
2013-03-25 03:24:00,33.5,32.5,29.53,NNE,22,0.0,0.0,96,0.00,,---,0.02,VWS V14.01,2013-03-25 07:24:00,
2013-03-25 03:29:00,33.6,32.6,29.53,NNE,22,0.0,0.0,96,0.00,,---,0.02,VWS V14.01,2013-03-25 07:29:00,
2013-03-25 03:34:00,33.5,32.5,29.53,NNE,22,0.0,1.0,96,0.00,,---,0.02,VWS V14.01,2013-03-25 07:34:00,
2013-03-25 03:39:00,33.5,32.5,29.53,NNE,22,0.0,1.0,96,0.00,,---,0.02,VWS V14.01,2013-03-25 07:39:00,
2013-03-25 03:44:00,33.5,32.5,29.53,NNE,22,0.0,0.0,96,0.00,,---,0.02,VWS V14.01,2013-03-25 07:44:00,
2013-03-25 03:49:00,33.4,32.4,29.53,NNE,22,0.0,0.0,96,0.00,,---,0.02,VWS V14.01,2013-03-25 07:49:00,
2013-03-25 03:54:00,33.4,32.4,29.53,NNE,22,0.0,0.0,96,0.00,,---,0.02,VWS V14.01,2013-03-25 07:54:00,
2013-03-25 03:59:00,33.4,32.4,29.52,NNE,22,0.0,0.0,96,0.00,,---,0.02,VWS V14.01,2013-03-25 07:59:00,
2013-03-25 04:04:00,33.5,32.5,29.52,NNE,22,0.0,0.0,96,0.00,,---,0.02,VWS V14.01,2013-03-25 08:04:00,
2013-03-25 04:09:00,33.5,32.5,29.52,NNE,22,0.0,0.0,96,0.00,,---,0.02,VWS V14.01,2013-03-25 08:09:00,
2013-03-25 04:14:00,33.5,32.5,29.52,NNE,22,0.0,1.0,96,0.00,,---,0.02,VWS V14.01,2013-03-25 08:14:00,
2013-03-25 04:19:00,33.5,32.5,29.52,NNE,22,0.0,1.0,96,0.00,,---,0.02,VWS V14.01,2013-03-25 08:19:00,
2013-03-25 04:24:00,33.5,32.5,29.52,NNE,22,0.0,0.0,96,0.00,,---,0.02,VWS V14.01,2013-03-25 08:24:00,
2013-03-25 04:29:00,33.5,32.5,29.50,NNE,22,0.0,0.0,96,0.00,,---,0.02,VWS V14.01,2013-03-25 08:29:00,
2013-03-25 04:35:00,33.5,32.5,29.50,NNE,22,0.0,1.0,96,0.00,,---,0.02,VWS V14.01,2013-03-25 08:35:00,
2013-03-25 04:40:00,33.5,32.5,29.50,NNE,22,0.0,1.0,96,0.00,,---,0.02,VWS V14.01,2013-03-25 08:40:00,
2013-03-25 04:45:00,33.5,32.5,29.50,NNE,22,0.0,2.0,96,0.00,,---,0.02,VWS V14.01,2013-03-25 08:45:00,
2013-03-25 04:50:00,33.5,32.5,29.50,NNE,22,0.0,2.0,96,0.00,,---,0.02,VWS V14.01,2013-03-25 08:50:00,
2013-03-25 04:55:00,33.5,32.5,29.50,NNE,22,0.0,0.0,96,0.00,,---,0.02,VWS V14.01,2013-03-25 08:55:00,
2013-03-25 05:00:00,33.5,32.5,29.50,NNE,22,0.0,1.0,96,0.00,,---,0.02,VWS V14.01,2013-03-25 09:00:00,
2013-03-25 05:05:00,33.4,32.4,29.50,NNE,22,0.0,1.0,96,0.00,,---,0.02,VWS V14.01,2013-03-25 09:05:00,
2013-03-25 05:10:00,33.4,32.4,29.50,NNE,22,0.0,0.0,96,0.00,,---,0.02,VWS V14.01,2013-03-25 09:10:00,
2013-03-25 05:15:00,33.4,32.4,29.50,NNE,22,0.0,1.0,96,0.00,,---,0.02,VWS V14.01,2013-03-25 09:15:00,
2013-03-25 05:20:00,33.4,32.4,29.50,NNE,22,0.0,0.0,96,0.00,,---,0.02,VWS V14.01,2013-03-25 09:20:00,
2013-03-25 05:25:00,33.4,32.4,29.50,NNE,22,0.0,0.0,96,0.00,,---,0.02,VWS V14.01,2013-03-25 09:25:00,
2013-03-25 05:30:00,33.3,32.3,29.50,NNE,22,0.0,0.0,96,0.00,,---,0.02,VWS V14.01,2013-03-25 09:30:00,
2013-03-25 05:35:00,33.4,32.4,29.50,NNE,22,0.0,0.0,96,0.00,,---,0.02,VWS V14.01,2013-03-25 09:35:00,
2013-03-25 05:40:00,33.5,32.5,29.50,NNE,22,0.0,0.0,96,0.00,,---,0.02,VWS V14.01,2013-03-25 09:40:00,
2013-03-25 05:45:00,33.5,32.5,29.50,NNE,22,0.0,0.0,96,0.00,,---,0.02,VWS V14.01,2013-03-25 09:45:00,
2013-03-25 05:50:00,33.6,32.6,29.50,NNE,22,0.0,0.0,96,0.00,,---,0.02,VWS V14.01,2013-03-25 09:50:00,
2013-03-25 05:55:00,33.5,32.5,29.50,NNE,22,0.0,0.0,96,0.00,,---,0.02,VWS V14.01,2013-03-25 09:55:00,
2013-03-25 06:00:00,33.5,32.5,29.50,NNE,22,0.0,0.0,96,0.00,,---,0.02,VWS V14.01,2013-03-25 10:00:00,
2013-03-25 06:05:00,33.4,32.4,29.50,NNE,22,0.0,0.0,96,0.00,,---,0.02,VWS V14.01,2013-03-25 10:05:00,
2013-03-25 06:10:00,33.4,32.4,29.50,NNE,22,0.0,0.0,96,0.00,,---,0.02,VWS V14.01,2013-03-25 10:10:00,
2013-03-25 06:15:00,33.5,32.5,29.50,NNE,22,0.0,0.0,96,0.00,,---,0.02,VWS V14.01,2013-03-25 10:15:00,
2013-03-25 06:20:00,33.6,32.6,29.50,NNE,22,0.0,0.0,96,0.00,,---,0.02,VWS V14.01,2013-03-25 10:20:00,
2013-03-25 06:25:00,33.6,32.6,29.50,NNE,22,0.0,0.0,96,0.01,,---,0.03,VWS V14.01,2013-03-25 10:25:00,
2013-03-25 06:30:00,33.6,32.6,29.51,NNE,22,0.0,0.0,96,0.01,,---,0.03,VWS V14.01,2013-03-25 10:30:00,
2013-03-25 06:35:00,33.7,32.7,29.51,NNE,22,1.0,2.0,96,0.01,,---,0.03,VWS V14.01,2013-03-25 10:35:00,
2013-03-25 06:40:00,33.7,32.7,29.51,NNE,22,0.0,0.0,96,0.01,,---,0.03,VWS V14.01,2013-03-25 10:40:00,
2013-03-25 06:45:00,33.7,32.7,29.52,NNE,22,0.0,1.0,96,0.01,,---,0.03,VWS V14.01,2013-03-25 10:45:00,
2013-03-25 06:51:00,33.7,32.7,29.52,NNE,22,0.0,0.0,96,0.01,,---,0.03,VWS V14.01,2013-03-25 10:51:00,
2013-03-25 06:56:00,33.8,32.8,29.52,West,268,0.0,4.0,96,0.01,,---,0.03,VWS V14.01,2013-03-25 10:56:00,
2013-03-25 07:01:00,33.8,32.8,29.52,West,268,3.0,3.0,96,0.01,,---,0.03,VWS V14.01,2013-03-25 11:01:00,
2013-03-25 07:06:00,33.7,32.7,29.52,West,268,0.0,3.0,96,0.01,,---,0.03,VWS V14.01,2013-03-25 11:06:00,
2013-03-25 07:11:00,33.7,32.7,29.52,SW,231,1.0,3.0,96,0.01,,---,0.03,VWS V14.01,2013-03-25 11:11:00,
2013-03-25 07:16:00,33.7,32.7,29.52,SW,231,0.0,3.0,96,0.01,,---,0.03,VWS V14.01,2013-03-25 11:16:00,
2013-03-25 07:21:00,33.7,32.7,29.52,SW,225,2.0,3.0,96,0.01,,---,0.03,VWS V14.01,2013-03-25 11:21:00,
2013-03-25 07:26:00,33.7,32.7,29.52,SW,224,1.0,4.0,96,0.01,,---,0.03,VWS V14.01,2013-03-25 11:26:00,
2013-03-25 07:31:00,33.7,32.7,29.52,SW,224,0.0,3.0,96,0.00,,---,0.03,VWS V14.01,2013-03-25 11:31:00,
2013-03-25 07:36:00,33.8,32.8,29.52,SW,224,2.0,3.0,96,0.00,,---,0.03,VWS V14.01,2013-03-25 11:36:00,
2013-03-25 07:41:00,33.9,32.9,29.52,SW,215,2.0,3.0,96,0.00,,---,0.03,VWS V14.01,2013-03-25 11:41:00,
2013-03-25 07:46:00,33.9,32.9,29.53,SW,215,3.0,4.0,96,0.00,,---,0.03,VWS V14.01,2013-03-25 11:46:00,
2013-03-25 07:51:00,34.0,33.0,29.53,SW,215,0.0,3.0,96,0.00,,---,0.03,VWS V14.01,2013-03-25 11:51:00,
2013-03-25 07:56:00,34.0,33.0,29.53,SW,215,1.0,4.0,96,0.00,,---,0.03,VWS V14.01,2013-03-25 11:56:00,
2013-03-25 08:01:00,34.1,33.1,29.54,SW,215,1.0,3.0,96,0.00,,---,0.03,VWS V14.01,2013-03-25 12:01:00,
2013-03-25 08:06:00,34.2,33.2,29.54,SW,216,3.0,4.0,96,0.00,,---,0.03,VWS V14.01,2013-03-25 12:06:00,
2013-03-25 08:11:00,34.2,33.2,29.54,SW,219,2.0,5.0,96,0.00,,---,0.03,VWS V14.01,2013-03-25 12:11:00,
2013-03-25 08:16:00,34.3,33.3,29.54,SSW,212,4.0,5.0,96,0.00,,---,0.03,VWS V14.01,2013-03-25 12:16:00,
2013-03-25 08:21:00,34.3,33.3,29.54,WSW,239,3.0,3.0,96,0.00,,---,0.03,VWS V14.01,2013-03-25 12:21:00,
2013-03-25 08:26:00,34.4,33.4,29.54,WSW,238,3.0,5.0,96,0.01,,---,0.04,VWS V14.01,2013-03-25 12:26:00,
2013-03-25 08:32:00,34.5,33.5,29.54,WSW,257,2.0,6.0,96,0.01,,---,0.04,VWS V14.01,2013-03-25 12:32:00,
2013-03-25 08:37:00,34.5,33.5,29.54,WSW,239,1.0,6.0,96,0.01,,---,0.04,VWS V14.01,2013-03-25 12:37:00,
2013-03-25 08:42:00,35.6,34.8,29.54,SW,227,4.0,6.0,97,0.01,,---,0.04,VWS V14.01,2013-03-25 12:42:00,
2013-03-25 08:47:00,35.6,34.6,29.54,SSW,194,1.0,8.0,96,0.01,,---,0.04,VWS V14.01,2013-03-25 12:47:00,
2013-03-25 08:52:00,35.4,34.4,29.54,SW,232,4.0,9.0,96,0.01,,---,0.04,VWS V14.01,2013-03-25 12:52:00,
2013-03-25 08:57:00,35.4,34.4,29.54,West,259,0.0,9.0,96,0.01,,---,0.04,VWS V14.01,2013-03-25 12:57:00,
2013-03-25 09:02:00,35.6,34.6,29.54,SSW,201,4.0,7.0,96,0.01,,---,0.04,VWS V14.01,2013-03-25 13:02:00,
2013-03-25 09:07:00,35.8,34.8,29.54,SSW,207,6.0,7.0,96,0.01,,---,0.04,VWS V14.01,2013-03-25 13:07:00,
2013-03-25 09:12:00,36.0,35.0,29.54,SW,217,4.0,5.0,96,0.01,,---,0.04,VWS V14.01,2013-03-25 13:12:00,
2013-03-25 09:18:00,36.1,34.8,29.54,SW,219,3.0,5.0,95,0.01,,---,0.04,VWS V14.01,2013-03-25 13:18:00,
2013-03-25 09:23:00,36.4,35.1,29.54,SSW,213,3.0,6.0,95,0.01,,---,0.04,VWS V14.01,2013-03-25 13:23:00,
2013-03-25 09:28:00,37.5,36.2,29.54,West,279,4.0,6.0,95,0.01,,---,0.04,VWS V14.01,2013-03-25 13:28:00,
2013-03-25 09:33:00,38.6,36.2,29.54,WSW,254,11.0,15.0,91,0.00,,---,0.04,VWS V14.01,2013-03-25 13:33:00,
2013-03-25 09:38:00,39.4,35.0,29.54,West,279,14.0,15.0,84,0.00,,---,0.04,VWS V14.01,2013-03-25 13:38:00,
2013-03-25 09:43:00,40.0,34.0,29.54,West,277,11.0,16.0,79,0.00,,---,0.04,VWS V14.01,2013-03-25 13:43:00,
2013-03-25 09:48:00,40.8,34.8,29.54,WSW,250,2.0,16.0,79,0.00,,---,0.04,VWS V14.01,2013-03-25 13:48:00,
2013-03-25 09:53:00,41.4,33.4,29.54,West,277,9.0,11.0,73,0.00,,---,0.04,VWS V14.01,2013-03-25 13:53:00,
2013-03-25 09:58:00,41.6,33.6,29.54,SW,218,6.0,15.0,73,0.00,,---,0.04,VWS V14.01,2013-03-25 13:58:00,
2013-03-25 10:03:00,41.8,32.0,29.55,West,280,20.0,20.0,68,0.00,,---,0.04,VWS V14.01,2013-03-25 14:03:00,
2013-03-25 10:08:00,41.6,31.5,29.55,WSW,255,14.0,25.0,67,0.00,,---,0.04,VWS V14.01,2013-03-25 14:08:00,
2013-03-25 10:13:00,41.6,30.7,29.55,WSW,249,7.0,18.0,65,0.00,,---,0.04,VWS V14.01,2013-03-25 14:13:00,
2013-03-25 10:18:00,42.0,30.3,29.54,WNW,282,7.0,18.0,63,0.00,,---,0.04,VWS V14.01,2013-03-25 14:18:00,
2013-03-25 10:23:00,41.8,29.0,29.54,WSW,251,13.0,23.0,60,0.00,,---,0.04,VWS V14.01,2013-03-25 14:23:00,
2013-03-25 10:29:00,42.2,29.7,29.54,WSW,251,7.0,23.0,61,0.00,,---,0.04,VWS V14.01,2013-03-25 14:29:00,
2013-03-25 10:34:00,42.7,30.6,29.55,SW,232,3.0,16.0,62,0.00,,---,0.04,VWS V14.01,2013-03-25 14:34:00,
2013-03-25 10:39:00,43.0,29.2,29.55,West,265,9.0,17.0,58,0.00,,---,0.04,VWS V14.01,2013-03-25 14:39:00,
2013-03-25 10:44:00,43.2,30.3,29.55,SW,236,4.0,14.0,60,0.00,,---,0.04,VWS V14.01,2013-03-25 14:44:00,
2013-03-25 10:49:00,43.4,29.2,29.55,WSW,247,3.0,14.0,57,0.00,,---,0.04,VWS V14.01,2013-03-25 14:49:00,
2013-03-25 10:54:00,43.3,29.1,29.55,SW,236,4.0,23.0,57,0.00,,---,0.04,VWS V14.01,2013-03-25 14:54:00,
2013-03-25 10:59:00,42.7,28.1,29.55,WNW,292,14.0,23.0,56,0.00,,---,0.04,VWS V14.01,2013-03-25 14:59:00,
2013-03-25 11:04:00,42.3,29.0,29.55,WSW,255,7.0,17.0,59,0.00,,---,0.04,VWS V14.01,2013-03-25 15:04:00,
2013-03-25 11:10:00,41.9,27.8,29.55,SW,223,7.0,22.0,57,0.00,,---,0.04,VWS V14.01,2013-03-25 15:10:00,
2013-03-25 11:15:00,41.2,27.6,29.56,WSW,255,12.0,19.0,58,0.00,,---,0.04,VWS V14.01,2013-03-25 15:15:00,
2013-03-25 11:20:00,41.1,27.9,29.56,West,262,9.0,25.0,59,0.00,,---,0.04,VWS V14.01,2013-03-25 15:20:00,
2013-03-25 11:25:00,42.9,30.0,29.56,WNW,283,10.0,21.0,60,0.00,,---,0.04,VWS V14.01,2013-03-25 15:25:00,
2013-03-25 11:30:00,43.4,27.9,29.56,SSW,202,6.0,21.0,54,0.00,,---,0.04,VWS V14.01,2013-03-25 15:30:00,
2013-03-25 11:35:00,43.8,28.2,29.56,SW,231,11.0,26.0,54,0.00,,---,0.04,VWS V14.01,2013-03-25 15:35:00,
2013-03-25 11:40:00,42.6,26.7,29.56,West,259,22.0,22.0,53,0.00,,---,0.04,VWS V14.01,2013-03-25 15:40:00,
2013-03-25 11:45:00,42.1,27.1,29.57,West,263,10.0,22.0,55,0.00,,---,0.04,VWS V14.01,2013-03-25 15:45:00,
2013-03-25 11:50:00,41.8,26.4,29.57,WSW,244,7.0,13.0,54,0.00,,---,0.04,VWS V14.01,2013-03-25 15:50:00,
2013-03-25 11:55:00,41.4,26.9,29.57,WSW,258,14.0,16.0,56,0.00,,---,0.04,VWS V14.01,2013-03-25 15:55:00,
2013-03-25 12:00:00,40.9,26.4,29.57,SW,220,16.0,16.0,56,0.00,,---,0.04,VWS V14.01,2013-03-25 16:00:00,
2013-03-25 12:05:00,40.6,25.7,29.57,WNW,293,2.0,27.0,55,0.00,,---,0.04,VWS V14.01,2013-03-25 16:05:00,
2013-03-25 12:10:00,42.9,28.7,29.57,NNW,340,7.0,7.0,57,0.00,,---,0.04,VWS V14.01,2013-03-25 16:10:00,
2013-03-25 12:15:00,43.5,27.5,29.57,SW,224,4.0,17.0,53,0.00,,---,0.04,VWS V14.01,2013-03-25 16:15:00,
2013-03-25 12:20:00,42.4,26.0,29.57,West,259,13.0,15.0,52,0.00,,---,0.04,VWS V14.01,2013-03-25 16:20:00,
2013-03-25 12:25:00,41.8,24.5,29.57,West,271,10.0,24.0,50,0.00,,---,0.04,VWS V14.01,2013-03-25 16:25:00,
2013-03-25 12:30:00,42.7,25.9,29.58,WNW,286,6.0,13.0,51,0.00,,---,0.04,VWS V14.01,2013-03-25 16:30:00,
2013-03-25 12:35:00,42.5,25.2,29.58,West,266,12.0,21.0,50,0.00,,---,0.04,VWS V14.01,2013-03-25 16:35:00,
2013-03-25 12:40:00,42.0,25.2,29.58,West,265,6.0,13.0,51,0.00,,---,0.04,VWS V14.01,2013-03-25 16:40:00,
2013-03-25 12:45:00,41.6,25.3,29.58,West,259,5.0,16.0,52,0.00,,---,0.04,VWS V14.01,2013-03-25 16:45:00,
2013-03-25 12:50:00,41.4,25.1,29.58,WSW,253,11.0,11.0,52,0.00,,---,0.04,VWS V14.01,2013-03-25 16:50:00,
2013-03-25 12:55:00,41.4,24.2,29.58,WSW,240,14.0,20.0,50,0.00,,---,0.04,VWS V14.01,2013-03-25 16:55:00,
2013-03-25 13:00:00,41.4,24.2,29.58,West,274,14.0,17.0,50,0.00,,---,0.04,VWS V14.01,2013-03-25 17:00:00,
2013-03-25 13:05:00,41.5,24.7,29.58,West,263,13.0,18.0,51,0.00,,---,0.04,VWS V14.01,2013-03-25 17:05:00,
2013-03-25 13:10:00,41.8,25.5,29.58,West,262,5.0,12.0,52,0.00,,---,0.04,VWS V14.01,2013-03-25 17:10:00,
2013-03-25 13:15:00,42.2,23.9,29.58,NW,311,2.0,20.0,48,0.00,,---,0.04,VWS V14.01,2013-03-25 17:15:00,
2013-03-25 13:20:00,42.9,25.6,29.58,WNW,301,14.0,16.0,50,0.00,,---,0.04,VWS V14.01,2013-03-25 17:20:00,
2013-03-25 13:25:00,42.6,24.8,29.58,West,277,17.0,21.0,49,0.00,,---,0.04,VWS V14.01,2013-03-25 17:25:00,
2013-03-25 13:31:00,42.3,24.0,29.59,WNW,294,14.0,16.0,48,0.00,,---,0.04,VWS V14.01,2013-03-25 17:31:00,
2013-03-25 13:36:00,42.3,25.5,29.59,West,279,5.0,22.0,51,0.00,,---,0.04,VWS V14.01,2013-03-25 17:36:00,
2013-03-25 13:41:00,42.2,25.4,29.59,SSW,211,12.0,23.0,51,0.00,,---,0.04,VWS V14.01,2013-03-25 17:41:00,
2013-03-25 13:46:00,41.8,24.5,29.59,West,281,2.0,23.0,50,0.00,,---,0.04,VWS V14.01,2013-03-25 17:46:00,
2013-03-25 13:51:00,41.9,25.1,29.59,SW,229,4.0,15.0,51,0.00,,---,0.04,VWS V14.01,2013-03-25 17:51:00,
2013-03-25 13:56:00,42.4,26.0,29.59,SW,217,5.0,15.0,52,0.00,,---,0.04,VWS V14.01,2013-03-25 17:56:00,
2013-03-25 14:01:00,42.7,25.9,29.59,West,261,16.0,22.0,51,0.00,,---,0.04,VWS V14.01,2013-03-25 18:01:00,
2013-03-25 14:06:00,42.3,25.9,29.59,West,277,3.0,25.0,52,0.00,,---,0.04,VWS V14.01,2013-03-25 18:06:00,
2013-03-25 14:11:00,42.3,25.9,29.59,WSW,257,19.0,19.0,52,0.00,,---,0.04,VWS V14.01,2013-03-25 18:11:00,
2013-03-25 14:17:00,42.0,24.2,29.58,WNW,284,11.0,22.0,49,0.00,,---,0.04,VWS V14.01,2013-03-25 18:17:00,
2013-03-25 14:22:00,42.2,24.9,29.58,WSW,257,13.0,18.0,50,0.00,,---,0.04,VWS V14.01,2013-03-25 18:22:00,
2013-03-25 14:27:00,42.4,24.1,29.58,West,263,19.0,22.0,48,0.00,,---,0.04,VWS V14.01,2013-03-25 18:27:00,
2013-03-25 14:32:00,42.5,24.2,29.58,West,278,14.0,22.0,48,0.00,,---,0.04,VWS V14.01,2013-03-25 18:32:00,
2013-03-25 14:37:00,42.2,24.4,29.58,WSW,257,6.0,22.0,49,0.00,,---,0.04,VWS V14.01,2013-03-25 18:37:00,
2013-03-25 14:42:00,42.4,25.1,29.58,West,264,12.0,14.0,50,0.00,,---,0.04,VWS V14.01,2013-03-25 18:42:00,
2013-03-25 14:47:00,43.6,26.2,29.58,West,272,6.0,14.0,50,0.00,,---,0.04,VWS V14.01,2013-03-25 18:47:00,
2013-03-25 14:52:00,43.5,25.1,29.58,West,265,14.0,17.0,48,0.00,,---,0.04,VWS V14.01,2013-03-25 18:52:00,
2013-03-25 14:57:00,42.8,24.0,29.58,West,276,7.0,17.0,47,0.00,,---,0.04,VWS V14.01,2013-03-25 18:57:00,
2013-03-25 15:02:00,42.5,24.7,29.58,West,277,5.0,13.0,49,0.00,,---,0.04,VWS V14.01,2013-03-25 19:02:00,
2013-03-25 15:07:00,42.6,24.3,29.58,West,275,10.0,27.0,48,0.00,,---,0.04,VWS V14.01,2013-03-25 19:07:00,
2013-03-25 15:12:00,45.3,27.8,29.58,WNW,300,4.0,19.0,50,0.00,,---,0.04,VWS V14.01,2013-03-25 19:12:00,
2013-03-25 15:17:00,45.0,25.5,29.58,WSW,251,15.0,20.0,46,0.00,,---,0.04,VWS V14.01,2013-03-25 19:17:00,
2013-03-25 15:22:00,45.3,25.2,29.58,NW,309,12.0,26.0,45,0.00,,---,0.04,VWS V14.01,2013-03-25 19:22:00,
2013-03-25 15:27:00,44.3,25.4,29.58,SW,234,5.0,26.0,47,0.00,,---,0.04,VWS V14.01,2013-03-25 19:27:00,
2013-03-25 15:33:00,43.6,24.2,29.58,NW,321,4.0,16.0,46,0.00,,---,0.04,VWS V14.01,2013-03-25 19:33:00,
2013-03-25 15:38:00,43.4,24.0,29.58,WNW,286,12.0,21.0,46,0.00,,---,0.04,VWS V14.01,2013-03-25 19:38:00,
2013-03-25 15:43:00,43.6,25.2,29.58,WNW,294,2.0,15.0,48,0.00,,---,0.04,VWS V14.01,2013-03-25 19:43:00,
2013-03-25 15:48:00,44.0,24.6,29.58,WNW,293,6.0,16.0,46,0.00,,---,0.04,VWS V14.01,2013-03-25 19:48:00,
2013-03-25 15:53:00,43.3,24.4,29.58,SW,233,13.0,17.0,47,0.00,,---,0.04,VWS V14.01,2013-03-25 19:53:00,
2013-03-25 15:58:00,43.4,25.0,29.58,West,274,10.0,17.0,48,0.00,,---,0.04,VWS V14.01,2013-03-25 19:58:00,
2013-03-25 16:03:00,45.2,26.2,29.59,SW,232,11.0,13.0,47,0.00,,---,0.04,VWS V14.01,2013-03-25 20:03:00,
2013-03-25 16:08:00,44.5,26.0,29.59,WNW,294,12.0,15.0,48,0.00,,---,0.04,VWS V14.01,2013-03-25 20:08:00,
2013-03-25 16:13:00,43.6,25.2,29.59,West,266,7.0,12.0,48,0.00,,---,0.04,VWS V14.01,2013-03-25 20:13:00,
2013-03-25 16:18:00,43.0,25.2,29.60,South,183,1.0,13.0,49,0.00,,---,0.04,VWS V14.01,2013-03-25 20:18:00,
2013-03-25 16:23:00,42.7,25.9,29.60,NW,309,10.0,18.0,51,0.00,,---,0.04,VWS V14.01,2013-03-25 20:23:00,
2013-03-25 16:28:00,43.3,26.4,29.60,WNW,294,8.0,18.0,51,0.00,,---,0.04,VWS V14.01,2013-03-25 20:28:00,
2013-03-25 16:33:00,44.0,26.1,29.60,NW,308,11.0,14.0,49,0.00,,---,0.04,VWS V14.01,2013-03-25 20:33:00,
2013-03-25 16:38:00,43.8,26.9,29.60,West,271,5.0,14.0,51,0.00,,---,0.04,VWS V14.01,2013-03-25 20:38:00,
2013-03-25 16:43:00,44.3,27.8,29.60,WNW,300,3.0,6.0,52,0.00,,---,0.04,VWS V14.01,2013-03-25 20:43:00,
2013-03-25 16:48:00,44.0,26.1,29.61,NW,317,3.0,11.0,49,0.00,,---,0.04,VWS V14.01,2013-03-25 20:48:00,
2013-03-25 16:53:00,44.6,26.6,29.61,SW,232,9.0,11.0,49,0.00,,---,0.04,VWS V14.01,2013-03-25 20:53:00,
2013-03-25 16:59:00,44.9,25.9,29.61,WSW,237,2.0,14.0,47,0.00,,---,0.04,VWS V14.01,2013-03-25 20:59:00,
2013-03-25 17:04:00,44.2,25.3,29.61,WNW,286,3.0,14.0,47,0.00,,---,0.04,VWS V14.01,2013-03-25 21:04:00,
2013-03-25 17:09:00,43.4,24.5,29.61,West,263,8.0,18.0,47,0.00,,---,0.04,VWS V14.01,2013-03-25 21:09:00,
2013-03-25 17:14:00,42.9,24.6,29.61,West,263,12.0,18.0,48,0.00,,---,0.04,VWS V14.01,2013-03-25 21:14:00,
2013-03-25 17:19:00,42.8,25.0,29.61,West,263,7.0,18.0,49,0.00,,---,0.04,VWS V14.01,2013-03-25 21:19:00,
2013-03-25 17:24:00,42.8,25.5,29.61,WSW,247,14.0,15.0,50,0.00,,---,0.04,VWS V14.01,2013-03-25 21:24:00,
2013-03-25 17:29:00,42.7,25.4,29.62,SW,227,12.0,16.0,50,0.00,,---,0.04,VWS V14.01,2013-03-25 21:29:00,
2013-03-25 17:34:00,42.5,25.7,29.62,West,269,12.0,14.0,51,0.00,,---,0.04,VWS V14.01,2013-03-25 21:34:00,
2013-03-25 17:39:00,42.5,26.1,29.62,West,271,16.0,16.0,52,0.00,,---,0.04,VWS V14.01,2013-03-25 21:39:00,
2013-03-25 17:44:00,42.4,26.5,29.63,West,275,4.0,11.0,53,0.00,,---,0.04,VWS V14.01,2013-03-25 21:44:00,
2013-03-25 17:49:00,43.2,26.3,29.63,West,266,7.0,19.0,51,0.00,,---,0.04,VWS V14.01,2013-03-25 21:49:00,
2013-03-25 17:54:00,43.7,26.8,29.63,SW,229,4.0,15.0,51,0.00,,---,0.04,VWS V14.01,2013-03-25 21:54:00,
2013-03-25 17:59:00,44.1,26.7,29.63,West,277,9.0,15.0,50,0.00,,---,0.04,VWS V14.01,2013-03-25 21:59:00,
2013-03-25 18:04:00,44.1,26.2,29.63,WSW,240,14.0,16.0,49,0.00,,---,0.04,VWS V14.01,2013-03-25 22:04:00,
2013-03-25 18:09:00,43.8,24.9,29.63,WNW,288,17.0,21.0,47,0.00,,---,0.04,VWS V14.01,2013-03-25 22:09:00,
2013-03-25 18:14:00,43.5,25.1,29.65,West,265,5.0,14.0,48,0.00,,---,0.04,VWS V14.01,2013-03-25 22:14:00,
2013-03-25 18:19:00,43.4,24.5,29.65,WNW,298,13.0,23.0,47,0.00,,---,0.04,VWS V14.01,2013-03-25 22:19:00,
2013-03-25 18:25:00,43.2,24.4,29.65,WSW,253,11.0,17.0,47,0.00,,---,0.04,VWS V14.01,2013-03-25 22:25:00,
2013-03-25 18:30:00,43.1,24.3,29.65,West,265,9.0,10.0,47,0.00,,---,0.04,VWS V14.01,2013-03-25 22:30:00,
2013-03-25 18:35:00,42.6,23.8,29.65,WSW,246,13.0,21.0,47,0.00,,---,0.04,VWS V14.01,2013-03-25 22:35:00,
2013-03-25 18:40:00,42.3,23.5,29.65,WSW,239,4.0,10.0,47,0.00,,---,0.04,VWS V14.01,2013-03-25 22:40:00,
2013-03-25 18:45:00,42.2,24.4,29.66,WSW,252,6.0,18.0,49,0.00,,---,0.04,VWS V14.01,2013-03-25 22:45:00,
2013-03-25 18:50:00,41.8,24.1,29.66,WNW,287,10.0,10.0,49,0.00,,---,0.04,VWS V14.01,2013-03-25 22:50:00,
2013-03-25 18:55:00,41.5,24.7,29.66,WSW,256,11.0,11.0,51,0.00,,---,0.04,VWS V14.01,2013-03-25 22:55:00,
2013-03-25 19:00:00,41.1,24.4,29.67,West,269,7.0,10.0,51,0.00,,---,0.04,VWS V14.01,2013-03-25 23:00:00,
2013-03-25 19:05:00,40.9,23.7,29.67,West,268,10.0,14.0,50,0.00,,---,0.04,VWS V14.01,2013-03-25 23:05:00,
2013-03-25 19:10:00,40.8,23.6,29.67,SW,227,12.0,16.0,50,0.00,,---,0.04,VWS V14.01,2013-03-25 23:10:00,
2013-03-25 19:15:00,40.9,23.2,29.68,West,277,12.0,16.0,49,0.00,,---,0.04,VWS V14.01,2013-03-25 23:15:00,
2013-03-25 19:20:00,40.7,23.0,29.68,WNW,287,4.0,12.0,49,0.00,,---,0.04,VWS V14.01,2013-03-25 23:20:00,
2013-03-25 19:26:00,40.6,23.0,29.68,WSW,250,3.0,14.0,49,0.00,,---,0.04,VWS V14.01,2013-03-25 23:26:00,
2013-03-25 19:31:00,40.4,22.8,29.69,WNW,288,5.0,11.0,49,0.00,,---,0.04,VWS V14.01,2013-03-25 23:31:00,
2013-03-25 19:36:00,40.3,22.7,29.69,WNW,283,4.0,14.0,49,0.00,,---,0.04,VWS V14.01,2013-03-25 23:36:00,
2013-03-25 19:41:00,40.1,23.4,29.69,West,276,6.0,6.0,51,0.00,,---,0.04,VWS V14.01,2013-03-25 23:41:00,
2013-03-25 19:46:00,39.9,23.3,29.69,WNW,283,6.0,10.0,51,0.00,,---,0.04,VWS V14.01,2013-03-25 23:46:00,
2013-03-25 19:52:00,39.8,23.2,29.69,West,279,4.0,13.0,51,0.00,,---,0.04,VWS V14.01,2013-03-25 23:52:00,
2013-03-25 19:57:00,39.6,23.0,29.69,WSW,237,4.0,13.0,51,0.00,,---,0.04,VWS V14.01,2013-03-25 23:57:00,
2013-03-25 20:02:00,39.5,22.9,29.70,WNW,287,3.0,15.0,51,0.00,,---,0.04,VWS V14.01,2013-03-26 00:02:00,
2013-03-25 20:07:00,39.5,23.4,29.70,WNW,288,3.0,22.0,52,0.00,,---,0.04,VWS V14.01,2013-03-26 00:07:00,
2013-03-25 20:12:00,39.2,23.1,29.70,WNW,288,11.0,18.0,52,0.00,,---,0.04,VWS V14.01,2013-03-26 00:12:00,
2013-03-25 20:17:00,39.2,22.6,29.71,NW,306,4.0,19.0,51,0.00,,---,0.04,VWS V14.01,2013-03-26 00:17:00,
2013-03-25 20:22:00,39.2,22.6,29.71,WNW,297,5.0,16.0,51,0.00,,---,0.04,VWS V14.01,2013-03-26 00:22:00,
2013-03-25 20:27:00,39.1,23.0,29.71,West,279,11.0,17.0,52,0.00,,---,0.04,VWS V14.01,2013-03-26 00:27:00,
2013-03-25 20:32:00,38.9,23.2,29.73,NNW,334,8.0,17.0,53,0.00,,---,0.04,VWS V14.01,2013-03-26 00:32:00,
2013-03-25 20:37:00,38.8,23.1,29.73,NW,311,0.0,21.0,53,0.00,,---,0.04,VWS V14.01,2013-03-26 00:37:00,
2013-03-25 20:42:00,38.5,23.3,29.73,West,263,6.0,9.0,54,0.00,,---,0.04,VWS V14.01,2013-03-26 00:42:00,
2013-03-25 20:47:00,38.3,23.6,29.73,West,268,4.0,13.0,55,0.00,,---,0.04,VWS V14.01,2013-03-26 00:47:00,
2013-03-25 20:52:00,38.0,23.7,29.73,WSW,252,4.0,11.0,56,0.00,,---,0.04,VWS V14.01,2013-03-26 00:52:00,
2013-03-25 20:57:00,37.7,23.4,29.73,WSW,246,7.0,11.0,56,0.00,,---,0.04,VWS V14.01,2013-03-26 00:57:00,
2013-03-25 21:02:00,37.8,24.0,29.74,WSW,246,5.0,17.0,57,0.00,,---,0.04,VWS V14.01,2013-03-26 01:02:00,
2013-03-25 21:07:00,37.9,23.6,29.74,WNW,292,2.0,18.0,56,0.00,,---,0.04,VWS V14.01,2013-03-26 01:07:00,
2013-03-25 21:12:00,38.1,24.2,29.74,WNW,282,4.0,16.0,57,0.00,,---,0.04,VWS V14.01,2013-03-26 01:12:00,
2013-03-25 21:17:00,38.1,24.2,29.74,West,264,4.0,16.0,57,0.00,,---,0.04,VWS V14.01,2013-03-26 01:17:00,
2013-03-25 21:22:00,38.1,23.8,29.74,West,267,13.0,13.0,56,0.00,,---,0.04,VWS V14.01,2013-03-26 01:22:00,
2013-03-25 21:27:00,38.0,23.7,29.74,WSW,257,3.0,13.0,56,0.00,,---,0.04,VWS V14.01,2013-03-26 01:27:00,
2013-03-25 21:33:00,37.7,23.9,29.76,West,267,3.0,7.0,57,0.00,,---,0.04,VWS V14.01,2013-03-26 01:33:00,
2013-03-25 21:38:00,37.5,23.7,29.76,SSW,211,3.0,9.0,57,0.00,,---,0.04,VWS V14.01,2013-03-26 01:38:00,
2013-03-25 21:43:00,37.3,23.9,29.76,WNW,295,2.0,11.0,58,0.00,,---,0.04,VWS V14.01,2013-03-26 01:43:00,
2013-03-25 21:48:00,37.2,23.8,29.76,SW,234,7.0,11.0,58,0.00,,---,0.04,VWS V14.01,2013-03-26 01:48:00,
2013-03-25 21:53:00,36.9,23.9,29.76,West,261,5.0,5.0,59,0.00,,---,0.04,VWS V14.01,2013-03-26 01:53:00,
2013-03-25 21:58:00,36.6,24.0,29.76,SW,226,1.0,7.0,60,0.00,,---,0.04,VWS V14.01,2013-03-26 01:58:00,
2013-03-25 22:03:00,36.5,24.0,29.76,SW,227,1.0,3.0,60,0.00,,---,0.04,VWS V14.01,2013-03-26 02:03:00,
2013-03-25 22:08:00,36.4,23.9,29.76,SSW,213,2.0,6.0,60,0.00,,---,0.04,VWS V14.01,2013-03-26 02:08:00,
2013-03-25 22:13:00,36.4,24.2,29.76,WSW,248,4.0,5.0,61,0.00,,---,0.04,VWS V14.01,2013-03-26 02:13:00,
2013-03-25 22:18:00,36.3,24.1,29.76,WSW,242,2.0,6.0,61,0.00,,---,0.04,VWS V14.01,2013-03-26 02:18:00,
2013-03-25 22:23:00,36.1,24.0,29.76,SW,224,2.0,7.0,61,0.00,,---,0.04,VWS V14.01,2013-03-26 02:23:00,
2013-03-25 22:29:00,36.0,23.9,29.76,SW,228,4.0,7.0,61,0.00,,---,0.04,VWS V14.01,2013-03-26 02:29:00,
2013-03-25 22:34:00,35.9,24.2,29.76,SW,227,1.0,4.0,62,0.00,,---,0.04,VWS V14.01,2013-03-26 02:34:00,
2013-03-25 22:39:00,35.4,23.7,29.76,SW,227,3.0,6.0,62,0.00,,---,0.04,VWS V14.01,2013-03-26 02:39:00,
2013-03-25 22:44:00,35.2,23.9,29.76,SW,236,0.0,4.0,63,0.00,,---,0.04,VWS V14.01,2013-03-26 02:44:00,
2013-03-25 22:49:00,35.1,23.8,29.77,SW,236,3.0,4.0,63,0.00,,---,0.04,VWS V14.01,2013-03-26 02:49:00,
2013-03-25 22:54:00,35.2,24.3,29.77,SSW,207,4.0,10.0,64,0.00,,---,0.04,VWS V14.01,2013-03-26 02:54:00,
2013-03-25 22:59:00,35.3,24.0,29.77,SW,219,0.0,10.0,63,0.00,,---,0.04,VWS V14.01,2013-03-26 02:59:00,
2013-03-25 23:04:00,35.3,24.0,29.77,WSW,238,0.0,6.0,63,0.00,,---,0.04,VWS V14.01,2013-03-26 03:04:00,
2013-03-25 23:09:00,35.3,24.0,29.77,WSW,256,3.0,7.0,63,0.00,,---,0.04,VWS V14.01,2013-03-26 03:09:00,
2013-03-25 23:14:00,35.3,24.4,29.77,SSW,204,1.0,4.0,64,0.00,,---,0.04,VWS V14.01,2013-03-26 03:14:00,
2013-03-25 23:19:00,35.1,24.2,29.77,WSW,244,2.0,7.0,64,0.00,,---,0.04,VWS V14.01,2013-03-26 03:19:00,
2013-03-25 23:24:00,35.0,24.1,29.77,SSW,200,2.0,8.0,64,0.00,,---,0.04,VWS V14.01,2013-03-26 03:24:00,
2013-03-25 23:29:00,34.9,24.3,29.78,SW,236,4.0,8.0,65,0.00,,---,0.04,VWS V14.01,2013-03-26 03:29:00,
2013-03-25 23:34:00,34.8,24.2,29.78,SW,227,1.0,6.0,65,0.00,,---,0.04,VWS V14.01,2013-03-26 03:34:00,
2013-03-25 23:39:00,34.9,24.3,29.78,WSW,239,1.0,7.0,65,0.00,,---,0.04,VWS V14.01,2013-03-26 03:39:00,
2013-03-25 23:45:00,34.7,24.1,29.78,SW,222,5.0,6.0,65,0.00,,---,0.04,VWS V14.01,2013-03-26 03:45:00,
2013-03-25 23:50:00,34.6,24.4,29.78,SSW,213,2.0,6.0,66,0.00,,---,0.04,VWS V14.01,2013-03-26 03:50:00,
2013-03-25 23:55:00,34.6,24.4,29.78,WSW,241,6.0,7.0,66,0.00,,---,0.04,VWS V14.01,2013-03-26 03:55:00,